Regional Weather Roundup
Issued by NWS

Home | Current Version | Previous Version | Graphics & Text | Print | Product List | Glossary On
Versions: 1 2 3 4 5 6 7 8 9 10 11 12 13 14 15 16 17 18 19 20 21 22 23 24 25 26 27 28 29 30 31 32 33 34 35 36 37 38 39 40 41 42 43 44 45 46 47 48 49 50
000
ASUS43 KLMK 181202
RWRKY
KENTUCKY REGIONAL WEATHER ROUNDUP
NATIONAL WEATHER SERVICE LOUISVILLE KY
700 AM EST WED JAN 18 2017

NOTE "FAIR" INDICATES FEW OR NO CLOUDS BELOW 12,000 FEET
WITH NO SIGNIFICANT WEATHER AND/OR OBSTRUCTIONS TO VISIBILITY.

KYZ001>023-026-027-061>063-070>075-181300-
WESTERN AND SOUTH CENTRAL KENTUCKY

CITY           SKY/WX    TMP DP  RH WIND       PRES   REMARKS
PADUCAH        CLOUDY    42  36  79 NW3       30.21R
HENDERSON      CLOUDY    39  34  81 NW9       30.21S WCI  33
OWENSBORO      CLOUDY    41  37  86 NW8       30.22R
HOPKINSVILLE   CLOUDY    44  40  86 CALM      30.20R
BOWLING GREEN  CLOUDY    45  39  79 NW5       30.20R
GLASGOW        NOT AVBL
$$

KYZ024-025-028>034-038-045-046-053-181300-
NORTH CENTRAL KENTUCKY

CITY           SKY/WX    TMP DP  RH WIND       PRES   REMARKS
LOUISVILLE/SDF CLOUDY    42  36  79 W8        30.18R
LOUISVILLE/LOU CLOUDY    43  35  73 W8        30.19R
FORT KNOX      CLOUDY    40  37  87 W7        30.17S
$$

KYZ035>037-039>044-047>052-055>060-089>105-181300-
NORTHEAST KENTUCKY

CITY           SKY/WX    TMP DP  RH WIND       PRES   REMARKS
LEXINGTON      CLOUDY    42  37  82 W9        30.16R
COVINGTON      CLOUDY    38  36  92 W12       30.14R WCI  30
FRANKFORT      CLOUDY    42  35  76 W8        30.16R
$$

KYZ054-064>069-076>088-106>120-181300-
SOUTHEAST KENTUCKY

CITY           SKY/WX    TMP DP  RH WIND       PRES   REMARKS
JACKSON        CLOUDY    42  38  85 NW9       30.14R
LONDON         CLOUDY    42  38  85 NW8       30.16R
SOMERSET       NOT AVBL
MIDDLESBORO    CLOUDY    49  45  84 CALM      30.15R
MONTICELLO     CLOUDY    43  41  93 N8        30.20R
$$




USA.gov is the U.S. government's official web portal to all federal, state and local government web resources and services.